sat.trackr.live / text

‹ back to catalog

HAIYANG-3A

NORAD 58349 · 2023-176A

PAYLOAD ACTIVE UNKNOWN

§ Identity

Operator
Country
PRC
Launch date
2023-11-16
Launch site
JSC
Launch vehicle
Mass (kg)
RCS (m²)

External: N2YO · Heavens-Above · Gunter

§ Orbital elements

Epoch: 2026-05-25T05:08:12.782112Z

Period
100.41 min
Inclination
98.5466°
Eccentricity
0.0010868
Mean motion
14.34164492 rev/d
Perigee alt
770.1 km
Apogee alt
785.6 km
Semi-major
7,156.0 km
B*
4.8958e-5
RAAN
223.4447°
Arg perigee
94.1327°
Mean anomaly
266.1100°
Rev number
13,202

§ Raw data

HAIYANG-3A1 58349U 23176A   26145.21403683  .00000093  00000+0  48958-4 0  99922 58349  98.5466 223.4447 0010868  94.1327 266.1100 14.34164492132026

JSON: /api/v1/satellites/58349 · /tle

For live sub-satellite position, see the globe view (requires WebGL).

§ Visibility from observer

Set your observer location to see the next 7 days of passes ≥ 10°. The values pass through the URL so the page stays shareable.

No JS? Fill the form by hand. The geolocation button needs JavaScript.

§ Radio — SatNOGS DB

ModeDescriptionDownlinkUplink
BPSK S-band telemetry 2.227 GHz

1 transmitter · refreshed weekly from db.satnogs.org